Orbital elements of COSMOS 970 DEB
| Launched | 20 December 1977 |
| Flight ended | – |
| Launch site | Tyuratam Missile and Space Center, Kazakhstan (Also known as Baikonur Cosmodrome) |
| Owner | Commonwealth of Independent States (former USSR) |
| NORAD ID | 64992 |
| Date fetched |
Epoch osculation |
Inc. [°] |
Ecc. | RA asc node [hr] |
Arg Peri. [°] |
Mean anom [°] |
Mean motion [rev/day] |
Abs. mag |
| Date fetched |
Epoch osculation |
Inc. [°] |
Ecc. | RA asc node [hr] |
Arg Peri. [°] |
Mean anom [°] |
Mean motion [rev/day] |
Abs. mag |
| 2026 May 03 17:57 | 2026 Apr 30 10:18:42 | 65.8518 | 0.01142 | 23.5739 | 315.4591 | 225.0770 | 13.54532 | – |
| 2026 May 02 17:57 | 2026 Apr 30 10:18:42 | 65.8518 | 0.01142 | 23.5739 | 315.4591 | 225.0770 | 13.54532 | – |
| 2026 May 01 17:56 | 2026 Apr 30 10:18:42 | 65.8518 | 0.01142 | 23.5739 | 315.4591 | 225.0770 | 13.54532 | – |
| 2026 Apr 30 17:56 | 2026 Apr 30 10:18:42 | 65.8518 | 0.01142 | 23.5739 | 315.4591 | 225.0770 | 13.54532 | – |
| 2026 Apr 29 17:57 | 2026 Apr 23 11:45:59 | 65.8524 | 0.01139 | 0.6771 | 318.5830 | 225.0770 | 13.54532 | – |
| 2026 Apr 28 17:56 | 2026 Apr 23 11:45:59 | 65.8524 | 0.01139 | 0.6771 | 318.5830 | 225.0770 | 13.54532 | – |
| 2026 Apr 27 17:58 | 2026 Apr 23 11:45:59 | 65.8524 | 0.01139 | 0.6771 | 318.5830 | 225.0770 | 13.54532 | – |
| 2026 Apr 26 17:58 | 2026 Apr 23 11:45:59 | 65.8524 | 0.01139 | 0.6771 | 318.5830 | 225.0770 | 13.54532 | – |
| 2026 Apr 25 17:58 | 2026 Apr 23 11:45:59 | 65.8524 | 0.01139 | 0.6771 | 318.5830 | 225.0770 | 13.54532 | – |
| 2026 Apr 24 17:59 | 2026 Apr 23 11:45:59 | 65.8524 | 0.01139 | 0.6771 | 318.5830 | 225.0770 | 13.54532 | – |
| 2026 Apr 23 17:57 | 2026 Apr 19 00:37:28 | 65.8523 | 0.01136 | 1.3867 | 320.5876 | 225.0770 | 13.54532 | – |
| 2026 Apr 22 17:57 | 2026 Apr 19 00:37:28 | 65.8523 | 0.01136 | 1.3867 | 320.5876 | 225.0770 | 13.54532 | – |
| 2026 Apr 21 17:57 | 2026 Apr 19 00:37:28 | 65.8523 | 0.01136 | 1.3867 | 320.5876 | 225.0770 | 13.54532 | – |
| 2026 Apr 20 17:57 | 2026 Apr 19 00:37:28 | 65.8523 | 0.01136 | 1.3867 | 320.5876 | 225.0770 | 13.54532 | – |
| 2026 Apr 19 17:58 | 2026 Apr 19 00:37:28 | 65.8523 | 0.01136 | 1.3867 | 320.5876 | 225.0770 | 13.54532 | – |
| 2026 Apr 18 17:56 | 2026 Apr 12 02:03:06 | 65.8517 | 0.01132 | 2.4900 | 323.7175 | 225.0770 | 13.54532 | – |
| 2026 Apr 16 17:57 | 2026 Apr 12 02:03:06 | 65.8517 | 0.01132 | 2.4900 | 323.7175 | 225.0770 | 13.54532 | – |
| 2026 Apr 14 17:57 | 2026 Apr 12 02:03:06 | 65.8517 | 0.01132 | 2.4900 | 323.7175 | 225.0770 | 13.54532 | – |
| 2026 Apr 13 17:57 | 2026 Apr 12 02:03:06 | 65.8517 | 0.01132 | 2.4900 | 323.7175 | 225.0770 | 13.54532 | – |
| 2026 Apr 12 17:57 | 2026 Apr 05 21:16:03 | 65.8505 | 0.01128 | 3.4755 | 326.5171 | 225.0770 | 13.54532 | – |
| 2026 Apr 11 17:57 | 2026 Apr 05 21:16:03 | 65.8505 | 0.01128 | 3.4755 | 326.5171 | 225.0770 | 13.54532 | – |
| 2026 Apr 10 17:58 | 2026 Apr 05 21:16:03 | 65.8505 | 0.01128 | 3.4755 | 326.5171 | 225.0770 | 13.54532 | – |
| 2026 Apr 09 18:01 | 2026 Apr 05 21:16:03 | 65.8505 | 0.01128 | 3.4755 | 326.5171 | 225.0770 | 13.54532 | – |
| 2026 Apr 08 17:57 | 2026 Apr 05 21:16:03 | 65.8505 | 0.01128 | 3.4755 | 326.5171 | 225.0770 | 13.54532 | – |
| 2026 Apr 07 17:57 | 2026 Mar 31 22:33:07 | 65.8495 | 0.01125 | 4.2618 | 328.7614 | 225.0770 | 13.54532 | – |
| 2026 Apr 06 17:57 | 2026 Mar 31 22:33:07 | 65.8495 | 0.01125 | 4.2618 | 328.7614 | 225.0770 | 13.54532 | – |